www.pogodaiklimat.ru

Погода и климат >> Архив погоды >> Индия >> Орисса >> Самбалпур


ПОГОДА в Самбалпуре

  • Прогноз погоды в Самбалпуре
  • Монитор погоды в Самбалпуре

АРХИВ ПОГОДЫ в Самбалпуре

Время (UTC), дата Ветер
(напр.,м/с)
 
Видим.   Явления Облачность Т
(С)
Тd
(С)
f
(%)
Тe
(С)
Тes
(С)
Комфортность P
(гПа)
Po
(гПа)
Тmin
(С)
Tmax
(С)
R
(мм)
R24
(мм)
S
(см)
03 13.05 штиль 0 4000 м ясно +32.0 +19.9 49 +38 +52 опасность
солнечного
удара
1006.2 989.7 +26.0
06 13.05 штиль 0 4000 м ясно +38.4 +19.6 34 +44 +73 опасность
перегрева
1004.9 988.7
09 13.05 штиль 0 4000 м ясно +41.8 +22.0 32 +49 +68 опасность
перегрева
1001.9 985.9
12 13.05 штиль 0 4000 м ясно +39.0 +23.4 41 +49 +50 опасность
перегрева
1000.1 984.0 +42.1
03 14.05 штиль 0 4000 м 8/5 600 м
[Sc Ac trans]
+31.0 +20.5 54 +38 +42 очень
душно
1007.2 990.6 +26.9
06 14.05 Ю 1 4000 м 4/3 600 м
[Sc diur, vesp Ac trans]
+37.6 +19.3 34 +42 +59 опасность
перегрева
1005.7 989.5
09 14.05 штиль 0 4000 м 4/4 600 м
[Sc]
+40.0 +19.5 31 +45 +57 опасность
перегрева
1002.5 986.4
12 14.05 штиль 0 4000 м 4/3 600 м
[Sc Ac trans]
+37.4 +21.7 40 +45 +46 опасность
перегрева
1001.5 985.3 +40.5
03 15.05 штиль 0 4000 м ясно +33.8 +22.5 52 +43 +57 опасность
перегрева
1006.5 990.1 +27.0
06 15.05 штиль 0 4000 м 1/1 600 м
[Sc]
+39.2 +22.2 38 +47 +74 опасность
перегрева
1006.1 989.9
09 15.05 штиль 0 4000 м 4/3 600 м
[Sc Ac trans]
+42.0 +22.3 33 +50 +62 опасность
перегрева
1002.6 986.6
12 15.05 штиль 0 4000 м 3/3 600 м
[Sc]
+39.4 +17.4 28 +42 +43 опасность
перегрева
1000.8 984.7 +42.4
03 16.05 штиль 0 4000 м ясно +32.0 +19.9 49 +38 +52 опасность
солнечного
удара
1008.2 991.6 +26.4
06 16.05 штиль 0 4000 м ясно +38.2 +21.3 38 +45 +75 опасность
перегрева
1006.9 990.7
09 16.05 штиль 0 4000 м 1/1 600 м
[Sc]
+41.8 +21.6 32 +49 +66 опасность
перегрева
1003.7 987.7
12 16.05 штиль 0 4000 м 6/5 600 м
[Sc diur, vesp Ac trans]
+39.0 +25.1 45 +52 +52 опасность
перегрева
1002.5 986.4 +42.3
03 17.05 штиль 0 4000 м ясно +31.6 +21.6 55 +40 +53 опасность
солнечного
удара
1007.1 990.5 +26.6 0.0
06 17.05 штиль 0 4000 м ясно +39.0 +23.4 41 +49 +79 опасность
перегрева
1005.9 989.7
09 17.05 штиль 0 4000 м ясно +42.6 +22.3 32 +51 +70 опасность
перегрева
1002.2 986.3
12 17.05 штиль 0 4000 м 1/1 600 м
[Sc]
+41.0 +22.0 34 +49 +50 опасность
перегрева
1000.8 984.8 +43.3
03 18.05 штиль 0 4000 м 3/3 600 м
[Sc]
+34.0 +21.7 49 +42 +52 опасность
перегрева
1005.5 989.1 +28.2
06 18.05 штиль 0 4000 м ясно +40.2 +21.7 35 +48 +77 опасность
перегрева
1004.7 988.6
09 18.05 штиль 0 4000 м 1/1 600 м
[Sc]
+44.4 +17.2 21 +47 +64 опасность
перегрева
1001.4 985.6
12 18.05 штиль 0 4000 м 1/1 600 м
[Sc]
+41.2 +21.2 32 +48 +49 опасность
перегрева
1000.7 984.7 +44.6
03 19.05 штиль 0 4000 м 3/3 600 м
[Sc]
+34.0 +20.6 46 +41 +51 опасность
перегрева
1006.4 990.0 +27.4
06 19.05 штиль 0 4000 м 1/1 600 м
[Sc]
+42.2 +16.4 22 +44 +70 опасность
перегрева
1005.6 989.6
09 19.05 штиль 0 4000 м 3/3 600 м
[Sc]
+44.2 +15.0 18 +45 +58 опасность
перегрева
1003.4 987.5
12 19.05 штиль 0 4000 м 1/1 600 м
[Sc]
+41.0 +19.7 29 +46 +47 опасность
перегрева
1002.8 986.8 +44.4

 

Местоположение метеостанции Самбалпур (Орисса, Индия): широта 21.47 долгота 83.97 высота над уровнем моря 148 м.

В архиве по умолчанию представлена погода в Самбалпуре за последнюю неделю. Архивные данные за месяц целиком и за предыдущие месяцы, начиная с января 2011 года, Вы можете получить, выбрав интересующий диапазон дат из раскрывающегося списка и нажав кнопку "Ввод!".


*Определитесь, кто Вы:
робот инопланетянин человек

Внимание! Время в таблицах - всемирное. Для получения местного времени необходимо прибавить поправку, которая равна 5.5 ч.

Смотрите также архив погоды в соседних городах и на ближайших метеорологических станциях:

Погода в Харакаде (Орисса, Индия) (12 км)
Погода в Джхарсугуде (Орисса, Индия) (51 км)
Погода в Сундаргархе (Орисса, Индия) (73 км)
Погода в Пхулбани (Орисса, Индия) (114 км)
Погода в Ангуле (Орисса, Индия) (137 км)
Погода в Титилагаре (Орисса, Индия) (148 км)
Погода в Кендуджхаре (Орисса, Индия) (161 км)
Погода в Бхаванипатне (Орисса, Индия) (191 км)
Погода в Биласпуре (Чхаттисгарх, Индия) (199 км)
Погода в Амбикапуре (Чхаттисгарх, Индия) (203 км)

Пояснения к столбцам:

Ветер - указаны скорость ветра в м/с - средняя за 10 мин, порывы в срок и между сроками (в фигурных скобках) и направление, откуда дует ветер: С - северный, СВ - северо-восточный, В - восточный, ЮВ - юго-восточный, Ю - южный, ЮЗ - юго-западный, З - западный, СЗ - северо-западный.
Видимость - горизонтальная дальность видимости в метрах или километрах. При видимости от 1 до 10 км при отсутствии осадков обычно наблюдается дымка, при ухудшении видимости до 1 км и менее - туман. В сухую погоду видимость может ухудшаться дымом, пылью или мглою.
Явления - указаны атмосферные явления, наблюдавшиеся в срок или в последний час перед сроком; фигурными скобками обозначены явления, наблюдавшиеся между сроками (за 1-3 часа до срока); квадратными скобками обозначены град или гололедные отложения с указанием их диаметра в мм.
Облачность - указаны через наклонную черту общая и нижняя облачность в баллах и высота нижней границы облаков в метрах; квадратными скобками обозначены формы облаков: Ci - перистые, Cs - перисто-слоистые, Cc - перисто-кучевые, Ac - высококучевые, As - высокослоистые, Sc - слоисто-кучевые, Ns - слоисто-дождевые, Cu - кучевые, Cb - кучево-дождевые. Подробнее классификацию облаков см. в Атласе облаков (PDF).
T - Температура воздуха - температура, измеренная на высоте 2 м над землей.
Td - Температура точки росы - температура, при понижении до которой содержащийся в воздухе водяной пар достигнет насыщения.
f - Относительная влажность воздуха - влажноcть воздуха, измеренная на высоте 2 м над землей.
Te - Эффективная температура - температура, которую ощущает одетый по сезону человек в тени. Характеристика душности погоды. При расчете учитывается влияние влажности воздуха и скорости ветра на теплоощущения человека.
Tes - Эффективная температура на солнце - температура, которую ощущает человек, с поправкой на солнечный нагрев. Характеристика знойности погоды. Зависит от высоты солнца над горизонтом, облачности и скорости ветра. Ночью, в пасмурную погоду, а также при ветре 12 м/с и более поправка равна нулю.
P - Атмосферное давление - приведенное к уровню моря атмосферное давление.
Po - Атмосферное давление - измеренное на уровне метеостанции атмосферное давление.
Tmin - Минимальная температура - минимум температуры воздуха на высоте 2 м над землей.
Tmax - Максимальная температура - максимум температуры воздуха на высоте 2 м над землей.
R - Количество осадков - Количество выпавших осадков за период времени, мм. При наведении курсора мыши на число - период времени, за который выпало указанное количество осадков.
R24 - Количество осадков - Количество выпавших осадков за 24 часа, мм.
S - Снежный покров - Высота снежного покрова, см. При наведении курсора мыши на число - состояние снежного покрова и степень покрытия местности в баллах.